SCOUT A R/B, 2413

Orbit data source: Space-Track

SCOUT A R/B, 2413 is space debris in LEO originally from a launch on Thu, 18 Aug 1966 UTC launched from the Air Force Western Test Range (AFWTR). Debris objects in space refer to the collection of defunct objects orbiting the Earth. Examples of debris include non-operational satellites, rocket bodies, and fragments generated from explosions, collisions, or faulty payload assembly.

Loading next visibility...
Identifier
2413, 1966-076B
Orbit
LEO
Country
Flag of USUS
Related business
Manufacturer
ABL
Mission
Spacecraft
Bus & Motor
ALTAIR, Unknown motor
Mass
33 kg wet, 33 kg dry
Launch date (UTC)
1966-08-18 (59 years ago)
Launch vehicle
Unknown
Launch site
Air Force Western Test Range (AFWTR)
Object type
Payload
Rocket body
Debris
Shape & HBR
Unknown
Radar Cross Section
Medium (>0.1 m² and <1 m²)

Expand to show TLE details & history
Last TLE update: 8 hours ago

TLE from 8 hours ago
0 SCOUT A R/B
1  2413U 66076B   25294.84150684  .00000095  00000-0  12521-3 0  9991
2  2413  88.8436  99.5945 0033398  38.3596 321.9921 13.51831625916457
Epoch: 2025-10-21T20:11Z
TLE epoch observation values (Epoch: 2025-10-21T20:11:46.190Z)
Latitude
-0.0001°
Longitude
126.12836°
Altitude
1,048.921 km
Speed
7.337 km/s
True Right ascension
06h 38m 22s
True Declination
0° 00' 00"
Sunlit
Object was in daylight at epoch
Visualization orbit readout
Latitude
Unknown
Longitude
Unknown
Altitude
Unknown
Speed
Unknown
Apparent Right ascension
Unknown
Apparent Declination
Unknown
Sunlit
N/A
Visualization observer readout
Local Sidereal Time
23:34:19
Azimuth
Unknown
Elevation
Unknown
Doppler factor
Unknown
Orbital elements
Apogee altitude
1,087.428 km
Perigee altitude
1,037.727 km
Semi-major axis
7,440.715 km
Eccentricity
0.00334
Inclination
88.8436°
RAAN
99.5945°
Arg. of periapsis
38.3596°
True anomaly
321.75566°
Mean anomaly
321.9921°
Eccentric anomaly
321.87396°
Mean motion
3.38159 °/min
Orbital period
106.46 mins
BSTAR
0.00012521
Loading maneuver chart data...
Computing Atmospheric mass density...
Loading historical data...
Loading historical data...
Loading historical data...
Loading historical data...
Loading historical data...
Loading historical data...
Loading historical data...

Documentation

Showing up to 5 results
|